Hourly Data Report for September 19, 2006

TORONTO CITY
ONTARIO

43°40'00.000" N
79°24'00.000" W
112.50 m
6158355
71508
XTO

Download Data

Hourly Data (September 2006)
Hourly Data Report for September 19, 2006
TIME
LST
Temp Definition
°C
Dew Point Definition
°C
Rel Hum Definition
%
Precip. Amount Definition
mm

Wind Dir Definition
10's deg

Wind Spd Definition
km/h
Visibility Definition
km
Stn Press Definition
kPa
Hmdx Definition


Wind Chill Definition


Weather Definition


00:00 15.6 14.7 94   LegendMM LegendMM   99.11     LegendNANA
01:00 14.6 14.0 96   LegendMM LegendMM   99.08     LegendNANA
02:00 14.0 13.5 97   LegendMM LegendMM   99.15     LegendNANA
03:00 13.9 13.2 96   LegendMM LegendMM   99.14     LegendNANA
04:00 13.5 12.8 96   LegendMM LegendMM   99.15     LegendNANA
05:00 13.5 12.9 96   LegendMM LegendMM   99.17     LegendNANA
06:00 13.7 13.2 97   LegendMM LegendMM   99.19     LegendNANA
07:00 14.3 13.3 94   LegendMM LegendMM   99.25     LegendNANA
08:00 14.8 13.4 91   LegendMM LegendMM   99.27     LegendNANA
09:00 16.6 13.8 84   LegendMM LegendMM   99.31     LegendNANA
10:00 17.5 12.0 70   LegendMM LegendMM   99.31     LegendNANA
11:00 17.9 10.8 63   LegendMM LegendMM   99.34     LegendNANA
12:00 18.3 10.1 59   LegendMM LegendMM   99.33     LegendNANA
13:00 18.4 8.3 52   LegendMM LegendMM   99.32     LegendNANA
14:00 18.9 7.4 47   LegendMM LegendMM   99.31     LegendNANA
15:00 18.3 8.4 52   LegendMM LegendMM   99.34     LegendNANA
16:00 17.6 7.9 53   LegendMM LegendMM   99.37     LegendNANA
17:00 17.6 8.3 54   LegendMM LegendMM   99.39     LegendNANA
18:00 17.0 8.5 57   LegendMM LegendMM   99.42     LegendNANA
19:00 16.6 9.2 62   LegendMM LegendMM   99.44     LegendNANA
20:00 16.3 10.0 66   LegendMM LegendMM   99.45     LegendNANA
21:00 15.8 10.4 70   LegendMM LegendMM   99.41     LegendNANA
22:00 15.6 10.7 73   LegendMM LegendMM   99.39     LegendNANA
23:00 15.2 10.7 74   LegendMM LegendMM   99.37     LegendNANA

Notes on Data Quality.

Legend

  • E = Estimated
  • M = Missing
  • NA = Not Available*
  • [empty] = Indicates an unobserved value
Date modified: